Regional Weather Roundup
Issued by NWS Glasgow, MT

Home | Current Version | Previous Version | Text Only | Print | Product List | Glossary On
Versions: 1 2 3 4 5 6 7 8 9 10 11 12 13 14 15 16 17 18 19 20 21 22 23 24 25 26 27 28 29 30 31 32 33 34 35 36 37 38 39 40 41 42 43 44 45 46 47 48 49 50
000
ASUS45 KGGW 011815
RWRGGW
HOURLY REGIONAL WEATHER ROUNDUP FOR NORTHEAST MONTANA
NATIONAL WEATHER SERVICE GLASGOW MONTANA
1200 PM MDT SAT AUG 01 2015

NOTE: "FAIR" INDICATES FEW OR NO CLOUDS BELOW 12,000 FEET WITH NO
SIGNIFICANT WEATHER AND/OR OBSTRUCTIONS TO VISISBILITY.

NORTHEAST MONTANA


CITY           SKY/WX    TMP DP  RH WIND       PRES   REMARKS
GLASGOW        SUNNY     89  46  22 SW8       29.86F
6HR MIN TEMP:  57; 6HR MAX TEMP:  89;

PLENTYWOOD       N/A     86  47  25 S5          N/A
WOLF POINT     SUNNY     93  50  23 SW7       29.84F
JORDAN           N/A     95  34  11 NW15G23   29.90F
WINNETT          N/A     94  28   9 W8G21       N/A
SIDNEY         SUNNY    N/A N/A N/A SE8       29.87F
GLENDIVE       SUNNY     86  52  30 S9        29.93F
MALTA            N/A     87  52  29 W6          N/A
SCOBEY           N/A     88  50  27 S7        29.86F

FORT PECK REPORTS


CITY           SKY/WX    TMP DP  RH WIND       PRES   REMARKS
FORT PECK        N/A     84  62  47 S10         N/A
THE PINES        N/A     93  37  14 SW5         N/A

SOUTHEAST MONTANA


CITY           SKY/WX    TMP DP  RH WIND       PRES   REMARKS
BILLINGS       MOSUNNY   86  42  21 SW12      30.04F
MILES CITY     SUNNY     92  42  17 SW7G16    29.94F
BAKER          SUNNY     91  40  16 NW9       29.98F
LIVINGSTON     SUNNY     89  32  13 W10       30.12F

CENTRAL MONTANA


CITY           SKY/WX    TMP DP  RH WIND       PRES   REMARKS
HAVRE          SUNNY     89  39  17 SW9       29.91F
LEWISTOWN      SUNNY     90  34  13 N8G23     30.05F
GREAT FALLS    SUNNY     90  32  12 MISG      30.01F
CUT BANK       SUNNY     92  25   9 W12G18    29.99F
HELENA         SUNNY     81  43  26 VRB6      30.08F
BUTTE          SUNNY     83  31  15 N5        30.20F
BOZEMAN        SUNNY     82  46  28 CALM      30.14F

WESTERN MONTANA


CITY           SKY/WX    TMP DP  RH WIND       PRES   REMARKS
MISSOULA       SUNNY     77  33  20 VRB3      30.07F
KALISPELL      NOT AVBL

NORTH DAKOTA


CITY           SKY/WX    TMP DP  RH WIND       PRES   REMARKS
WILLISTON      SUNNY     86  56  35 S7        29.88F
DICKINSON      SUNNY     86  51  29 NW6       29.91F
MINOT          SUNNY     85  50  29 SE7       29.85F
BISMARCK       SUNNY     84  57  39 CALM      29.86F

SOUTHERN SASKATCHEWAN


CITY           SKY/WX    TMP DP  RH WIND       PRES   REMARKS
REGINA         PTSUNNY   84  57  39 VRB3      29.84F
ESTEVAN        SUNNY     86  55  35 SW13      29.85F
SWIFT CURRENT  SUNNY     79  54  41 NW10      29.86S



USA.gov is the U.S. government's official web portal to all federal, state and local government web resources and services.